MDT,Max TemperatureF,Mean TemperatureF,Min TemperatureF,Max Dew PointF,MeanDew PointF,Min DewpointF,Max Humidity, Mean Humidity, Min Humidity, Max Sea Level PressureIn, Mean Sea Level PressureIn, Min Sea Level PressureIn, Max VisibilityMiles, Mean VisibilityMiles, Min VisibilityMiles, Max Wind SpeedMPH, Mean Wind SpeedMPH, Max Gust SpeedMPH,PrecipitationIn, CloudCover, Events, WindDirDegrees
2013-3-1,44,35,26,23,17,9,64,48,33,30.29,30.25,30.20,20,12,10,15,8,,0.00,3,,194
2013-3-2,59,48,37,23,20,18,49,38,20,30.28,30.21,30.03,15,10,10,18,13,23,0.00,2,,282
2013-3-3,64,53,42,23,17,9,46,27,12,30.01,29.81,29.67,20,11,10,25,10,33,0.00,3,,261
2013-3-4,46,34,21,27,21,12,93,65,37,30.19,29.91,29.68,20,8,0,18,8,31,0.00,4,Snow,53
2013-3-5,37,26,14,21,15,9,86,66,45,30.22,30.18,30.11,20,10,10,9,5,,0.00,0,,358
2013-3-6,59,42,24,28,21,1,80,59,10,30.10,29.97,29.84,20,11,10,10,2,,0.00,1,,320
2013-3-7,64,50,35,27,21,10,70,42,12,29.97,29.91,29.85,20,11,10,17,5,,0.00,2,,323
2013-3-8,46,39,32,32,29,27,87,73,50,29.97,29.86,29.67,20,12,10,13,5,,0.00,3,,337
2013-3-9,35,30,26,32,26,16,100,82,59,30.06,29.80,29.63,20,8,0,21,8,24,0.00,5,Snow,351
2013-3-10,41,30,19,23,14,9,63,50,33,30.10,30.06,29.99,10,10,10,23,6,26,0.00,1,,284
2013-3-11,53,42,30,32,20,10,100,52,22,30.14,29.98,29.92,20,8,1,33,18,40,0.00,4,Snow,293
2013-3-12,35,30,24,32,26,19,100,89,65,30.29,30.21,30.14,15,6,1,9,3,,0.00,7,Snow,42
2013-3-13,62,45,28,30,25,16,87,59,16,30.27,30.21,30.15,20,8,5,23,6,32,0.00,2,,278
2013-3-14,71,58,46,23,17,7,40,24,8,30.31,30.24,30.16,10,10,10,20,6,22,0.00,3,,284
2013-3-15,77,66,55,23,13,7,29,15,7,30.15,30.02,29.91,10,10,10,26,17,37,0.00,3,,256
2013-3-16,59,49,39,30,28,23,70,47,25,30.01,29.93,29.82,15,11,10,25,13,36,0.00,5,,301
2013-3-17,59,46,33,27,19,3,75,43,11,29.83,29.71,29.54,10,10,10,46,9,58,0.00,2,,264
2013-3-18,48,40,32,12,5,0,35,26,16,29.93,29.88,29.84,20,11,10,31,20,43,0.00,2,,282
2013-3-19,55,42,28,18,-2,-33,64,20,4,30.34,30.04,29.92,10,10,10,34,20,52,0.00,2,,302
2013-3-20,50,37,24,19,17,12,74,53,22,30.33,30.09,29.74,20,11,10,22,3,24,0.00,3,,331
2013-3-21,59,48,37,34,19,3,66,36,16,29.82,29.67,29.53,20,11,10,32,13,39,0.00,3,Rain,257
2013-3-22,48,38,28,28,15,5,93,50,25,29.89,29.78,29.65,20,8,1,30,13,36,0.00,4,Snow,56
2013-3-23,46,29,12,25,16,3,93,83,25,30.13,29.98,29.87,15,4,0,21,14,29,0.00,7,Snow,339
2013-3-24,26,19,12,18,9,1,86,69,46,30.17,30.08,30.03,20,10,0,8,3,,0.00,4,Snow,280
2013-3-25,32,24,15,18,12,3,93,71,30,30.21,30.17,30.14,20,10,3,7,2,,0.00,4,Snow,130
2013-3-26,48,34,19,27,15,9,70,58,27,30.14,30.04,29.91,20,11,10,12,3,,0.00,3,,336
2013-3-27,53,42,32,34,28,23,80,66,43,30.09,30.03,29.99,20,12,10,10,5,,0.00,2,,329
2013-3-28,64,50,35,32,27,19,81,42,18,30.13,30.09,30.06,20,17,12,10,4,,0.00,6,,92
2013-3-29,66,54,42,30,25,18,61,35,16,30.16,30.12,30.07,20,12,10,24,8,32,0.00,4,,261
2013-3-30,66,52,35,36,27,10,87,50,11,30.24,30.13,30.04,15,11,10,24,7,31,0.00,2,,296
2013-3-31,68,52,35,34,25,7,87,58,9,30.22,30.10,29.96,20,10,10,13,4,,0.00,0,,240